This is the latest recevied weather packets stored in our database for station/object IR3AS. If no packets are shown the sender has not sent any weather packets the latest 10 day(s).
| Time | Temp. | Humidity | Pressure | Rain* | Wind** | Luminosity | Snow |
|---|---|---|---|---|---|---|---|
| 1787900398 | 15.56° C | 67% | 867.1 hPa | 0 mm | - | - | - |
| 1787900099 | 15.56° C | 70% | 867.4 hPa | 0 mm | - | - | - |
| 1787899798 | 15.56° C | 70% | 867.7 hPa | 0 mm | - | - | - |
| 1787899498 | 15.56° C | 72% | 868.3 hPa | 0 mm | - | - | - |
| 1787899198 | 15.56° C | 74% | 868.2 hPa | 0 mm | - | - | - |
| 1787898935 | 15.56° C | 77% | 868.4 hPa | 0 mm | - | - | - |
| 1787898899 | 15.56° C | 77% | 868.4 hPa | 0 mm | - | - | - |
| 1787898598 | 15.56° C | 78% | 868 hPa | 0 mm | - | - | - |
| 1787898298 | 15° C | 80% | 867.7 hPa | 0 mm | - | - | - |
| 1787897998 | 14.44° C | 81% | 868.4 hPa | 0 mm | - | - | - |
| 1787897698 | 14.44° C | 82% | 868.2 hPa | 0 mm | - | - | - |
| 1787897398 | 14.44° C | 81% | 868 hPa | 0 mm | - | - | - |
| 1787897098 | 13.89° C | 82% | 868.1 hPa | 0 mm | - | - | - |
| 1787896832 | 13.89° C | 83% | 868.7 hPa | 0 mm | - | - | - |
| 1787896798 | 13.89° C | 83% | 868.7 hPa | 0 mm | - | - | - |
| 1787896498 | 13.89° C | 81% | 869 hPa | 0 mm | - | - | - |
| 1787896234 | 14.44° C | 81% | 869 hPa | 0 mm | - | - | - |
| 1787896198 | 14.44° C | 81% | 869 hPa | 0 mm | - | - | - |
| 1787895931 | 14.44° C | 81% | 868.7 hPa | 0 mm | - | - | - |
| 1787895898 | 14.44° C | 81% | 868.7 hPa | 0 mm | - | - | - |
| 1787895598 | 14.44° C | 81% | 868.1 hPa | 0 mm | - | - | - |
| 1787895298 | 14.44° C | 81% | 868 hPa | 0 mm | - | - | - |
| 1787894998 | 13.89° C | 82% | 867.7 hPa | 0 mm | - | - | - |
| 1787894809 | 14.44° C | 81% | 868 hPa | 0 mm | - | - | - |
| 1787894698 | 14.44° C | 81% | 868 hPa | 0 mm | - | - | - |
* Rain latest hour (hover to see other rain measurements)
** Current wind speed in m/s (hover to see current wind gust speed)